User: anonymous   Login
Location: Unspecified
(0.0000°N, 0.0000°E)
Time: 06:46:58
(UTC+00:00)
Language:

NOSS 2-2 (C) - Orbit

View from above orbital plane
View from above orbital plane
View from above satellite
View from above satellite

Ground track
Ground track

The orbit data is extracted from the following two-line orbital elements,

1 21799U 91076C   19063.74259164 0.00000100  00000-0  24212-4 0    07
2 21799  63.3402 282.6641 0802732  32.3481 327.6519 13.41225737    08
Epoch (UTC): 04 March 2019 17:49:19
Eccentricity: 0.0802732
inclination: 63.3402°
perigee height: 504 km
apogee height: 1705 km
right ascension of ascending node: 282.6641°
argument of perigee: 32.3481°
revolutions per day: 13.41225737
mean anomaly at epoch: 327.6519°
orbit number at epoch: 0

The dashed part of the orbit path shows where the satellite is in the earth's shadow,  

DLR